Jefferson, NC

5:03 AM EDT on August 28, 2016 (GMT -0400)
Ashe County

Weather History for KGEV - February, 2010

Change the Weather History Date:

Thursday, February 4, 2010

  Actual Average Record
Temperature  
Mean Temperature 28 °F -  
Max Temperature 33 °F 44 °F 65 °F (1992)
Min Temperature 24 °F 21 °F -13 °F (1970)
Degree Days  
Heating Degree Days 36    
Moisture  
Dew Point 25 °F    
Average Humidity 83    
Maximum Humidity 100    
Minimum Humidity 70    
Precipitation  
Precipitation 0.00 in - - ()
Sea Level Pressure  
Sea Level Pressure 30.24 in    
Wind  
Wind Speed 2 mph (SE)    
Max Wind Speed 6 mph    
Max Gust Speed -    
Visibility 10 miles    
Events Snow    
Averages and records for this station are not official NWS values.
T = Trace of Precipitation, MM = Missing Value Source: NWS Daily Summary

Daily Weather History Graph

Daily Weather History Graph

Search for Another Location

Airport or City:

Trip Planner

Search our weather history database for the weather conditions in past years. The results will help you decide how hot, cold, wet, or windy it might be!

Date:

Astronomy

Feb. 04, 2010 Rise Set
Actual Time 7:24 AM EST 5:55 PM EST
Civil Twilight 6:57 AM EST 6:22 PM EST
Nautical Twilight 6:27 AM EST 6:52 PM EST
Astronomical Twilight 5:56 AM EST 7:22 PM EST
Moon No Moon Rise 10:17 AM EST (2/4)
Length of Visible Light 11h 24m
Length of Day
10h 30m
Waning Gibbous, 64% of the Moon is Illuminated
Feb 4
Waning Gibbous
Feb 5
Last Quarter
Feb 13
New
Feb 21
First Quarter
Feb 28
Full

Hourly Weather History & Observations

Time (EST) Temp. Windchill Dew Point Humidity Pressure Visibility Wind Dir Wind Speed Gust Speed Precip Events Conditions
12:02 AM 26.6 °F - 24.8 °F 93% 30.20 in 10.0 mi Calm Calm - N/A   Clear
12:22 AM 26.6 °F 21.2 °F 24.8 °F 93% 30.20 in 10.0 mi North 4.6 mph - N/A   Clear
12:44 AM 26.6 °F 21.2 °F 24.8 °F 93% 30.20 in 10.0 mi NNW 4.6 mph - N/A   Clear
1:02 AM 26.6 °F 22.6 °F 24.8 °F 93% 30.20 in 10.0 mi North 3.5 mph - N/A   Clear
1:22 AM 26.6 °F 20.0 °F 24.8 °F 93% 30.19 in 10.0 mi NNW 5.8 mph - N/A   Clear
1:42 AM 26.6 °F - 24.8 °F 93% 30.19 in 10.0 mi Calm Calm - N/A   Clear
2:02 AM 26.6 °F 22.6 °F 24.8 °F 93% 30.19 in 10.0 mi North 3.5 mph - N/A   Clear
2:22 AM 26.6 °F 21.2 °F 24.8 °F 93% 30.21 in 10.0 mi NNW 4.6 mph - N/A   Clear
2:42 AM 26.6 °F 20.0 °F 24.8 °F 93% 30.21 in 10.0 mi NNW 5.8 mph - N/A   Clear
3:02 AM 24.8 °F - 24.8 °F 100% 30.21 in 10.0 mi Calm Calm - N/A   Clear
3:22 AM 24.8 °F - 23.0 °F 93% 30.22 in 7.0 mi Calm Calm - N/A   Clear
4:02 AM 24.8 °F - 23.0 °F 93% 30.20 in 7.0 mi Calm Calm - N/A   Clear
4:22 AM 24.8 °F - 23.0 °F 93% 30.21 in 10.0 mi Calm Calm - N/A   Clear
4:42 AM 24.8 °F - 23.0 °F 93% 30.21 in 10.0 mi Calm Calm - N/A   Clear
5:02 AM 24.8 °F - 23.0 °F 93% 30.22 in 7.0 mi Calm Calm - N/A   Clear
5:22 AM 24.8 °F - 23.0 °F 93% 30.22 in 10.0 mi Calm Calm - N/A   Clear
5:42 AM 24.8 °F - 23.0 °F 93% 30.23 in 10.0 mi Calm Calm - N/A   Clear
6:02 AM 24.8 °F - 23.0 °F 93% 30.23 in 10.0 mi Calm Calm - N/A   Clear
6:22 AM 24.8 °F - 23.0 °F 93% 30.23 in 10.0 mi Calm Calm - N/A   Clear
6:42 AM 24.8 °F - 23.0 °F 93% 30.24 in 10.0 mi Calm Calm - N/A   Clear
7:02 AM 26.6 °F 22.6 °F 23.0 °F 86% 30.25 in 10.0 mi North 3.5 mph - N/A   Clear
7:22 AM 26.6 °F - 23.0 °F 86% 30.26 in 10.0 mi Calm Calm - N/A   Clear
7:43 AM 26.6 °F - 23.0 °F 86% 30.27 in 10.0 mi Calm Calm - N/A   Clear
8:02 AM 26.6 °F - 23.0 °F 86% 30.27 in 10.0 mi Calm Calm - N/A   Clear
8:22 AM 26.6 °F - 23.0 °F 86% 30.27 in 10.0 mi Calm Calm - N/A   Clear
8:42 AM 26.6 °F - 23.0 °F 86% 30.28 in 10.0 mi Calm Calm - N/A   Clear
9:02 AM 26.6 °F - 23.0 °F 86% 30.29 in 10.0 mi Calm Calm - N/A   Clear
9:22 AM 26.6 °F - 23.0 °F 86% 30.29 in 10.0 mi Calm Calm - N/A   Clear
9:42 AM 26.6 °F - 24.8 °F 93% 30.29 in 10.0 mi Calm Calm - N/A   Clear
10:02 AM 28.4 °F - 24.8 °F 86% 30.29 in 10.0 mi Calm Calm - N/A   Scattered Clouds
10:24 AM 32.0 °F 28.7 °F 24.8 °F 75% 30.30 in 10.0 mi SSE 3.5 mph - N/A   Clear
10:42 AM 32.0 °F 28.7 °F 24.8 °F 75% 30.29 in 10.0 mi South 3.5 mph - N/A   Clear
11:02 AM 32.0 °F 28.7 °F 24.8 °F 75% 30.29 in 10.0 mi SE 3.5 mph - N/A   Scattered Clouds
11:22 AM 33.8 °F 28.6 °F 24.8 °F 70% 30.29 in 10.0 mi SE 5.8 mph - N/A   Scattered Clouds
11:42 AM 33.8 °F 29.6 °F 24.8 °F 70% 30.29 in 10.0 mi SE 4.6 mph - N/A   Clear
12:02 PM 33.8 °F - 24.8 °F 70% 30.27 in 10.0 mi Calm Calm - N/A   Clear
12:22 PM 33.8 °F - 24.8 °F 70% 30.26 in 10.0 mi Calm Calm - N/A   Clear
12:42 PM 33.8 °F 30.8 °F 24.8 °F 70% 30.26 in 10.0 mi South 3.5 mph - N/A   Clear
1:02 PM 33.8 °F - 24.8 °F 70% 30.26 in 10.0 mi Calm Calm - N/A   Clear
1:22 PM 33.8 °F 30.8 °F 24.8 °F 70% 30.25 in 10.0 mi SE 3.5 mph - N/A   Clear
1:42 PM 33.8 °F 29.6 °F 24.8 °F 70% 30.25 in 10.0 mi SE 4.6 mph - N/A   Clear
2:02 PM 33.8 °F 29.6 °F 24.8 °F 70% 30.25 in 10.0 mi SE 4.6 mph - N/A   Clear
2:23 PM 33.8 °F 30.8 °F 26.6 °F 75% 30.25 in 10.0 mi SE 3.5 mph - N/A   Clear
2:42 PM 33.8 °F 29.6 °F 24.8 °F 70% 30.26 in 10.0 mi SE 4.6 mph - N/A   Clear
3:02 PM 33.8 °F 28.6 °F 26.6 °F 75% 30.26 in 10.0 mi SE 5.8 mph - N/A   Clear
3:22 PM 33.8 °F 29.6 °F 26.6 °F 75% 30.25 in 10.0 mi SE 4.6 mph - N/A   Clear
3:42 PM 33.8 °F 30.8 °F 26.6 °F 75% 30.24 in 10.0 mi SE 3.5 mph - N/A   Clear
4:02 PM 33.8 °F 30.8 °F 26.6 °F 75% 30.24 in 10.0 mi SE 3.5 mph - N/A   Scattered Clouds
4:22 PM 32.0 °F 28.7 °F 26.6 °F 80% 30.24 in 10.0 mi SSE 3.5 mph - N/A   Clear
4:42 PM 32.0 °F 27.5 °F 26.6 °F 80% 30.23 in 10.0 mi SE 4.6 mph - N/A   Scattered Clouds
5:03 PM 32.0 °F 28.7 °F 26.6 °F 80% 30.23 in 10.0 mi SE 3.5 mph - N/A   Scattered Clouds
5:22 PM 32.0 °F 27.5 °F 26.6 °F 80% 30.23 in 10.0 mi SE 4.6 mph - N/A   Scattered Clouds
5:42 PM 32.0 °F - 26.6 °F 80% 30.25 in 10.0 mi Calm Calm - N/A   Scattered Clouds
6:02 PM 32.0 °F 28.7 °F 26.6 °F 80% 30.25 in 10.0 mi SE 3.5 mph - N/A   Overcast
6:22 PM 32.0 °F 28.7 °F 26.6 °F 80% 30.25 in 10.0 mi SSE 3.5 mph - N/A   Overcast
6:42 PM 32.0 °F 28.7 °F 26.6 °F 80% 30.26 in 10.0 mi SSE 3.5 mph - N/A   Overcast
7:02 PM 32.0 °F 28.7 °F 26.6 °F 80% 30.25 in 10.0 mi SE 3.5 mph - N/A   Overcast
7:22 PM 32.0 °F - 26.6 °F 80% 30.24 in 10.0 mi Calm Calm - N/A   Overcast
7:42 PM 32.0 °F 27.5 °F 26.6 °F 80% 30.23 in 10.0 mi SSE 4.6 mph - N/A   Overcast
8:02 PM 32.0 °F 28.7 °F 26.6 °F 80% 30.23 in 10.0 mi SE 3.5 mph - N/A   Overcast
8:22 PM 32.0 °F - 26.6 °F 80% 30.23 in 10.0 mi Calm Calm - N/A   Overcast
8:42 PM 32.0 °F - 26.6 °F 80% 30.23 in 10.0 mi Calm Calm - N/A   Overcast
9:02 PM 32.0 °F 28.7 °F 26.6 °F 80% 30.23 in 7.0 mi SE 3.5 mph - N/A   Overcast
9:22 PM 32.0 °F - 26.6 °F 80% 30.22 in 5.0 mi Calm Calm - N/A Snow Light Snow
9:42 PM 32.0 °F 28.7 °F 28.4 °F 87% 30.22 in 5.0 mi SSE 3.5 mph - N/A Snow Light Snow
10:02 PM 30.2 °F 26.7 °F 28.4 °F 93% 30.21 in 2.5 mi SSE 3.5 mph - N/A Snow Light Snow
10:22 PM 30.2 °F - 28.4 °F 93% 30.20 in 1.5 mi Calm Calm - N/A Snow Light Snow
10:42 PM 30.2 °F - 28.4 °F 93% 30.20 in 3.0 mi Calm Calm - 0.01 in Snow Light Snow
11:02 PM 30.2 °F - 28.4 °F 93% 30.20 in 2.0 mi Calm Calm - N/A Snow Light Snow
11:22 PM 30.2 °F - 28.4 °F 93% 30.20 in 1.8 mi Calm Calm - N/A Snow Light Snow
11:42 PM 30.2 °F - 28.4 °F 93% 30.20 in 2.5 mi Calm Calm - 0.01 in Snow Light Snow